OBJECT K, 61903

Orbit data source: Space-Track

You're viewing an Uncataloged Satellite

Recently launched and/or uncataloged satellites may have evolving metadata. Metadata may include but not limited to: Owner, Maufacturer, Bus, Motor, and Mission.

OBJECT K, 61903 is a Chinese satellite in SSO that was launched on Mon, 11 Nov 2024 UTC via a LIJIAN-1 launch vehicle from the Jiuquan Satellite Launch Center, China (JSC). Unknown objects in Earth's orbit typically refer to objects detected orbiting the Earth but have not yet been identified or cataloged. These objects could be anything from previously untracked satellites, spent rocket stages, debris from satellite collisions, or even natural meteoroids temporarily captured by Earth's gravity.

Loading next visibility...
Identifier
61903, 2024-205K
Orbit
SSO
Country
Flag of CNCN / PRC
Related business
None
Manufacturer
Unknown
Mission
Operational Defense Technology
Bus & Motor
Unknown
Mass
Unknown
Launch date (UTC)
2024-11-11 (11 months ago)
Launch vehicle
LIJIAN-1
Launch site
Jiuquan Satellite Launch Center, China (JSC)
Object type
Unknown
Shape & HBR
Box + 2 Pan, 2.5 m
Radar Cross Section
4.795 m², Medium (>0.1 m² and < 1m²)

Expand to show TLE details & history
Last TLE update: 6 hours ago

TLE from 6 hours ago
0 OBJECT K
1 61903U 24205K   25298.87238808  .00017805  00000-0  75807-3 0  9993
2 61903  97.4373  12.1029 0012456 141.9271 218.2849 15.22973198 52886
Epoch: 2025-10-25T20:56Z
TLE epoch observation values (Epoch: 2025-10-25T20:56:14.330Z)
Latitude
0.00008°
Longitude
23.54648°
Altitude
506.699 km
Speed
7.607 km/s
True Right ascension
00h 48m 24s
True Declination
0° 00' 00"
Sunlit
Object was in full shadow at epoch
Visualization orbit readout
Latitude
Unknown
Longitude
Unknown
Altitude
Unknown
Speed
Unknown
Apparent Right ascension
Unknown
Apparent Declination
Unknown
Sunlit
N/A
Visualization observer readout
Local Sidereal Time
22:05:10
Azimuth
Unknown
Elevation
Unknown
Doppler factor
Unknown
Orbital elements
Apogee altitude
502.401 km
Perigee altitude
485.282 km
Semi-major axis
6,871.978 km
Eccentricity
0.00125
Inclination
97.4373°
RAAN
12.1029°
Arg. of periapsis
141.9271°
True anomaly
218.19657°
Mean anomaly
218.2849°
Eccentric anomaly
218.24073°
Mean motion
3.80996 °/min
Orbital period
94.49 mins
BSTAR
0.00075807
Loading maneuver chart data...
Computing Atmospheric mass density...
Loading historical data...
Loading historical data...
Loading historical data...
Loading historical data...
Loading historical data...
Loading historical data...
Loading historical data...

Documentation

Showing up to 5 results
|